Location: Godiavel Galaoual
(15.2485°N, 12.6604°W)
Time: 03:38:01
(UTC+00:00)

BUGSAT 1 - Pass Details

Date: 05 August 2021
Orbit: 558 x 601 km, 98.1° (Epoch: 26 September)

Event Time Altitude Azimuth Distance (km) Brightness Sun altitude
Rises 05:10:50 0° 12° (NNE) 2,829 ? -19.6°
Reaches altitude 10° 05:13:00 10° 12° (NNE) 1,931 ? -19.1°
Maximum altitude 05:17:12 89° 94° (E) 603 ? -18.2°
Enters shadow 05:20:19 18° 192° (SSW) 1,487 ? -17.5°
